Location: Coupvray
(48.8929°N, 2.7967°E)
Time: 21:12:29
(UTC+00:00)

Cosmos 1864 Rocket - Pass Details

Date: 14 July 2020
Orbit: 952 x 996 km, 82.9° (Epoch: 14 August)

Event Time Altitude Azimuth Distance (km) Brightness Sun altitude
Exits shadow 02:02:19 18° 195° (SSW) 2,134 5.7 -14.0°
Maximum altitude 02:06:58 77° 280° (W) 980 4.5 -13.6°
Drops below altitude 10° 02:13:08 10° 7° (N) 2,693 7.9 -13.0°
Sets 02:15:39 0° 9° (N) 3,645 8.8 -12.8°
